Location: Marcé
(47.5801°N, 0.3280°W)
Time: 23:55:37
(UTC+01:00)

Transit 2A - Pass Details

Date: 04 December 2021
Orbit: 591 x 967 km, 66.7° (Epoch: 16 January)

Event Time Altitude Azimuth Distance (km) Brightness Sun altitude
Rises 04:49:16 0° 296° (WNW) 3,530 - -36.7°
Reaches altitude 10° 04:53:15 10° 322° (NW) 2,650 - -36.0°
Maximum altitude 04:56:17 14° 351° (N) 2,421 - -35.5°
Exits shadow 04:57:47 13° 6° (N) 2,498 8.7 -35.2°
Drops below altitude 10° 04:59:22 10° 20° (NNE) 2,707 9.0 -35.0°
Sets 05:03:33 0° 46° (NE) 3,664 10.1 -34.3°
